{"data":{"norad_id":53886,"epoch":"2026-09-20T10:25:22.179072Z","epoch_age_seconds":89697,"freshness":"FRESH","line1":"1 53886U 22119A   26263.43428448  .00001350  00000+0  51115-4 0  9996","line2":"2 53886  53.1619 163.6735 0001930  86.1226 273.9998 15.34395043221162","mean_motion":15.34395043,"eccentricity":0.000193,"inclination_deg":53.1619,"raan_deg":163.6735,"arg_perigee_deg":86.1226,"mean_anomaly_deg":273.9998,"bstar":5.1115e-5,"rev_number":22116,"period_min":93.848061264885,"perigee_km":461.39768848553,"apogee_km":464.03825850529,"semimajor_km":6840.8549734954,"source":"CELESTRAK","updated_at":"2026-09-21T09:00:33.027606Z"}}